Lid_Strength_Index
3 3 3 3 3 3 3 4 5 5 5 5 5 5 5 5 5 8 9 7 6 7 6 5 4 7 7 7 10 8 8 8 9 12 12 12 13 12 12 12 13 14 15 15 15 17 18 7 8 12 9 8 8 8
3 3 3 3 3 3 4 4 5 5 5 5 5 5 5 4 6 7 8 5 4 5 5 4 4 3 4 4 6 7 8 8 8 10 11 11 13 12 12 15 10 14 12 13 12 13 9 7 8 7 8 8 8 8
3 3 3 4 4 4 4 4 4 5 5 5 6 5 5 5 6 7 9 8 4 6 5 5 6 4 3 3 3 7 7 6 7 6 8 9 12 11 13 13 12 10 8 11 11 10 9 8 8 8 8 8 7 7
3 3 3 3 3 4 4 4 5 5 5 6 6 5 4 5 5 7 8 6 5 5 8 7 4 5 2 3 3 3 4 4 7 6 8 10 11 9 11 10 11 9 9 10 10 9 8 7 8 8 7 7 6 6
3 3 4 3 3 4 4 5 5 6 6 6 5 5 4 5 6 8 8 7 5 5 8 7 5 5 5 3 3 4 5 6 7 8 9 10 9 9 9 10 11 9 10 11 12 9 8 7 7 6 7 7 7 7
3 3 4 3 4 4 5 5 6 6 6 5 5 5 4 6 6 6 6 4 6 4 6 9 6 5 5 5 4 6 6 7 8 8 9 8 7 9 11 12 8 8 8 9 9 7 7 7 6 6 7 7 7 7
3 4 4 4 4 5 5 6 6 6 6 6 6 5 5 6 7 5 5 5 5 3 6 9 8 6 5 6 6 6 6 7 8 8 8 8 8 9 11 12 8 7 6 7 8 8 8 6 7 6 6 6 5 6
5 5 4 4 5 5 6 6 6 6 6 6 6 5 5 6 7 7 5 7 6 5 6 9 9 7 6 8 8 7 7 7 7 8 7 9 8 10 11 9 7 6 6 6 8 8 8 7 6 6 6 6 7 7
5 5 5 5 5 6 6 6 6 6 6 6 5 5 5 6 6 5 4 4 4 6 8 9 10 11 7 8 8 8 8 9 6 9 8 8 10 12 9 8 7 6 6 6 7 7 7 7 6 6 7 6 7 7
5 5 5 5 5 6 6 6 6 6 6 5 4 5 7 5 4 3 4 6 5 6 7 9 8 8 7 8 10 8 8 9 12 9 8 10 11 8 7 6 6 5 5 5 8 8 8 7 7 7 6 5 6 6
5 5 5 5 6 6 6 7 6 6 5 6 6 6 5 4 4 5 7 8 9 9 8 8 9 9 7 9 10 8 10 9 12 11 11 12 12 8 6 6 5 6 5 6 6 6 5 6 5 6 5 5 5 5
5 5 6 6 7 7 7 7 6 6 7 8 7 6 6 7 9 9 10 9 9 10 8 9 8 8 8 8 9 9 10 9 13 8 11 13 10 8 6 6 5 5 5 4 4 4 4 4 4 5 5 5 6 7
5 6 6 7 7 7 6 6 6 7 7 7 7 8 8 9 12 11 12 11 10 9 9 9 9 8 7 8 9 9 11 12 8 12 13 11 8 6 6 5 5 4 4 4 5 4 4 3 3 4 5 5 6 7
6 6 7 7 7 6 6 6 6 6 6 5 9 13 10 10 9 10 9 9 8 9 10 10 11 10 9 8 9 10 10 9 13 15 13 9 7 6 6 5 5 5 4 4 5 4 4 4 4 4 5 6 6 6
6 6 7 7 7 7 6 5 6 6 4 7 8 12 10 9 9 9 9 9 8 8 8 8 9 9 9 9 8 9 11 13 12 13 10 8 7 6 5 5 5 5 5 5 5 4 4 4 5 6 6 6 5 6
6 6 6 7 7 7 6 5 5 3 5 7 8 9 9 9 9 8 9 9 8 7 8 9 10 9 11 10 11 12 12 13 11 9 8 7 7 6 5 4 4 4 5 5 5 5 5 6 7 7 6 6 6 6
7 7 6 7 7 6 5 3 4 5 6 7 9 8 9 9 9 9 8 9 8 8 9 9 10 11 9 11 12 10 11 9 8 7 7 6 6 6 5 5 4 4 4 4 5 6 7 7 6 6 6 6 6 6
8 7 6 6 6 6 3 3 4 5 7 8 9 9 8 7 8 8 7 8 8 8 9 9 8 10 12 12 11 9 8 7 7 7 6 6 5 4 4 5 5 5 6 6 7 7 7 7 7 7 7 6 6 7
7 6 5 6 7 5 4 5 5 7 8 8 9 8 8 8 8 8 7 7 7 7 8 9 10 11 11 9 9 8 8 8 7 7 6 6 6 5 5 5 5 7 8 8 8 8 8 8 8 8 7 7 8 7
5 5 5 6 6 5 6 7 5 7 8 7 8 8 8 8 8 7 7 8 8 8 8 9 9 9 9 8 7 7 7 7 7 7 7 6 6 6 8 8 8 8 8 8 7 9 7 7 8 8 8 8 8 8
4 4 5 5 4 6 7 8 8 8 8 8 8 8 8 7 7 8 9 8 7 8 9 8 9 8 7 7 7 6 6 6 7 7 6 7 8 8 9 9 9 9 8 8 8 8 9 9 8 8 8 8 8 7
5 5 4 3 7 7 8 8 8 8 7 7 8 8 8 9 9 9 9 8 8 8 7 8 7 7 7 7 7 7 6 5 5 6 9 9 9 9 9 9 10 10 10 10 9 9 9 8 8 8 8 7 8 8
5 5 4 6 7 10 9 7 7 7 8 9 8 9 8 9 8 7 8 8 8 8 9 8 7 7 7 6 5 5 5 6 7 8 8 9 9 9 10 10 10 10 11 10 9 9 9 10 9 9 8 8 8 8
6 6 7 8 8 10 7 8 8 8 9 9 9 10 9 9 8 8 9 9 8 8 8 7 6 6 6 6 7 7 8 8 8 9 9 9 9 9 9 9 10 9 10 9 9 9 9 9 11 9 9 9 9 9
11 10 9 12 8 8 9 9 9 9 10 9 9 10 10 9 9 9 9 8 8 8 7 6 5 6 6 7 8 8 8 9 10 10 10 9 9 9 10 9 9 8 8 9 9 9 9 9 9 8 8 8 9 8
13 9 11 10 10 9 10 10 10 10 9 10 10 10 9 8 10 11 9 8 8 7 7 7 6 8 9 9 10 10 10 9 9 9 9 9 9 10 11 11 11 10 8 8 8 9 9 8 9 9 9 8 10 9
12 10 9 8 9 9 10 9 9 9 10 11 10 10 10 12 11 9 7 7 8 8 7 7 8 9 10 10 9 9 9 10 10 10 9 9 9 9 10 11 12 10 9 9 9 9 9 9 9 9 9 9 8 8
9 9 10 9 9 9 10 10 10 10 10 8 9 10 10 10 11 8 8 7 8 8 8 8 9 9 9 10 10 10 11 10 10 10 10 9 9 10 10 10 10 12 10 10 10 10 9 9 9 9 9 8 8 7
10 9 9 10 10 9 9 9 9 8 8 9 10 10 10 10 9 9 8 8 8 9 10 10 10 10 10 10 10 10 11 12 13 15 15 15 14 12 11 11 12 12 12 11 11 10 10 10 10 9 8 8 7 7
9 9 10 9 10 11 9 8 8 7 8 7 8 9 10 10 9 7 8 9 10 10 10 10 10 11 12 13 13 12 11 11 12 13 14 15 14 13 13 14 13 12 11 11 11 11 11 10 10 9 9 9 8 7
8 9 10 10 10 9 8 8 8 7 8 8 9 11 11 10 9 9 10 9 10 11 12 13 13 12 12 13 13 13 14 12 12 12 12 12 12 12 12 12 11 11 11 11 11 11 11 11 10 9 8 8 7 7
9 10 11 11 10 8 8 8 9 9 9 9 8 8 8 10 12 12 11 11 11 12 14 12 12 12 11 11 11 11 13 12 13 12 12 12 12 11 11 11 11 10 11 11 11 10 9 9 9 8 8 7 7 6
10 10 10 10 10 10 9 8 9 9 8 8 8 9 11 12 14 12 10 10 11 11 11 11 10 10 11 12 13 13 13 12 13 13 13 12 12 12 12 11 10 10 10 10 9 9 9 8 8 8 8 7 6 6